Cando, ND

4:46 PM CST on February 19, 2018 (GMT -0600)
Cando

Weather History for K9D7 - March, 2014

Change the Weather History Date:

Wednesday, March 12, 2014

  Actual Average (KDVL) Record (KDVL)
Temperature  
Mean Temperature 26 °F -  
Max Temperature 37 °F 31 °F 60 °F (2015)
Min Temperature 15 °F 15 °F -18 °F (1956)
Degree Days  
Heating Degree Days 39    
Moisture  
Dew Point 22 °F    
Average Humidity 89    
Maximum Humidity 100    
Minimum Humidity 75    
Precipitation  
Precipitation 0.00 in - - ()
Sea Level Pressure  
Sea Level Pressure 29.97 in    
Wind  
Wind Speed 11 mph (South)    
Max Wind Speed 18 mph    
Max Gust Speed -    
Visibility 9 miles    
Events Snow    
Averages and records for this station are not official NWS values.
T = Trace of Precipitation, MM = Missing Value Source: NWS Daily Summary

Daily Weather History Graph

Daily Weather History Graph

Search for Another Location

Airport or City:

Trip Planner

Search our weather history database for the weather conditions in past years. The results will help you decide how hot, cold, wet, or windy it might be!

Date:

Astronomy

Mar. 12, 2014 Rise Set
Actual Time 7:56 AM CDT 7:37 PM CDT
Civil Twilight 7:25 AM CDT 8:09 PM CDT
Nautical Twilight 6:48 AM CDT 8:45 PM CDT
Astronomical Twilight 6:11 AM CDT 9:22 PM CDT
Moon 3:56 PM CDT (3/12) 5:43 AM CDT (3/12)
Length of Visible Light 12h 44m
Length of Day
11h 41m
Waxing Gibbous, 85% of the Moon is Illuminated
Mar 12
Waxing Gibbous
Mar 16
Full
Mar 23
Last Quarter
Mar 30
New
Apr 7
First Quarter

Hourly Weather History & Observations

Time (CDT) Temp. Windchill Dew Point Humidity Pressure Visibility Wind Dir Wind Speed Gust Speed Precip Events Conditions
12:15 AM 19.4 °F 8.6 °F 17.6 °F 93% 30.13 in 9.0 mi ESE 9.2 mph - N/A Snow Light Snow
12:35 AM 19.4 °F 8.6 °F 17.6 °F 93% 30.13 in 10.0 mi East 9.2 mph - N/A   Overcast
12:55 AM 19.4 °F 8.6 °F 15.8 °F 86% 30.13 in 8.0 mi East 9.2 mph - N/A Snow Light Snow
1:15 AM 19.4 °F 7.9 °F 15.8 °F 86% 30.13 in 10.0 mi East 10.4 mph - N/A   Overcast
1:35 AM 17.6 °F 5.7 °F 15.8 °F 93% 30.13 in 10.0 mi East 10.4 mph - N/A   Overcast
1:55 AM 17.6 °F 5.0 °F 14.0 °F 86% 30.12 in 10.0 mi East 11.5 mph - N/A   Overcast
2:15 AM 15.8 °F 3.4 °F 14.0 °F 93% 30.12 in 10.0 mi East 10.4 mph - N/A   Overcast
2:35 AM 15.8 °F 2.7 °F 14.0 °F 93% 30.12 in 10.0 mi East 11.5 mph - N/A   Overcast
2:55 AM 15.8 °F 2.7 °F 14.0 °F 93% 30.13 in 10.0 mi East 11.5 mph - N/A   Overcast
3:15 AM 15.8 °F 2.7 °F 14.0 °F 93% 30.11 in 10.0 mi ESE 11.5 mph - N/A   Overcast
3:35 AM 15.8 °F 3.4 °F 14.0 °F 93% 30.12 in 10.0 mi East 10.4 mph - N/A   Overcast
3:55 AM 15.8 °F 3.4 °F 14.0 °F 93% 30.11 in 10.0 mi East 10.4 mph - N/A   Overcast
4:15 AM 15.8 °F 2.7 °F 14.0 °F 93% 30.09 in 10.0 mi ESE 11.5 mph - N/A   Overcast
4:35 AM 15.8 °F 2.7 °F 12.2 °F 86% 30.09 in 10.0 mi ESE 11.5 mph - N/A   Overcast
4:55 AM 15.8 °F 2.1 °F 12.2 °F 86% 30.09 in 10.0 mi SE 12.7 mph - N/A   Overcast
5:15 AM 15.8 °F 2.7 °F 12.2 °F 86% 30.07 in 10.0 mi SE 11.5 mph - N/A   Overcast
5:35 AM 15.8 °F 2.7 °F 12.2 °F 86% 30.07 in 10.0 mi SE 11.5 mph - N/A   Overcast
5:55 AM 15.8 °F 5.1 °F 12.2 °F 86% 30.08 in 10.0 mi SE 8.1 mph - N/A   Overcast
6:15 AM 15.8 °F 4.2 °F 12.2 °F 86% 30.08 in 10.0 mi SE 9.2 mph - N/A   Overcast
6:35 AM 15.8 °F 4.2 °F 14.0 °F 93% 30.07 in 10.0 mi SSE 9.2 mph - N/A   Overcast
6:55 AM 15.8 °F 2.7 °F 14.0 °F 93% 30.06 in 10.0 mi SE 11.5 mph - N/A   Overcast
7:15 AM 15.8 °F 2.7 °F 14.0 °F 93% 30.06 in 10.0 mi SSE 11.5 mph - N/A   Overcast
7:35 AM 15.8 °F 4.2 °F 14.0 °F 93% 30.06 in 10.0 mi SSE 9.2 mph - N/A   Overcast
7:55 AM 17.6 °F 7.3 °F 14.0 °F 86% 30.07 in 10.0 mi SSE 8.1 mph - N/A   Overcast
8:15 AM 17.6 °F 5.7 °F 15.8 °F 93% 30.06 in 10.0 mi South 10.4 mph - N/A   Overcast
8:35 AM 17.6 °F 7.3 °F 15.8 °F 93% 30.06 in 10.0 mi South 8.1 mph - N/A   Overcast
8:55 AM 17.6 °F 7.3 °F 15.8 °F 93% 30.06 in 10.0 mi SSE 8.1 mph - N/A   Overcast
9:15 AM 17.6 °F 5.7 °F 15.8 °F 93% 30.05 in 10.0 mi South 10.4 mph - N/A   Overcast
9:35 AM 19.4 °F 7.9 °F 17.6 °F 93% 30.04 in 10.0 mi South 10.4 mph - N/A   Overcast
9:55 AM 19.4 °F 8.6 °F 17.6 °F 93% 30.04 in 10.0 mi South 9.2 mph - N/A   Overcast
10:15 AM 19.4 °F 7.9 °F 19.4 °F 100% 30.03 in 9.0 mi SSE 10.4 mph - N/A   Overcast
10:35 AM 21.2 °F 8.9 °F 19.4 °F 93% 30.03 in 9.0 mi SE 12.7 mph - N/A   Overcast
10:55 AM 21.2 °F 8.9 °F 19.4 °F 93% 30.02 in 10.0 mi SE 12.7 mph - N/A   Overcast
11:15 AM 21.2 °F 8.9 °F 17.6 °F 86% 30.02 in 10.0 mi SE 12.7 mph - N/A   Overcast
11:35 AM 21.2 °F 7.8 °F 19.4 °F 93% 30.02 in 9.0 mi SE 15.0 mph - N/A   Overcast
11:55 AM 23.0 °F 10.6 °F 19.4 °F 86% 30.01 in 8.0 mi SE 13.8 mph - N/A   Overcast
12:15 PM 23.0 °F 10.1 °F 21.2 °F 93% 30.00 in 8.0 mi SSE 15.0 mph - N/A   Overcast
12:35 PM 24.8 °F 13.4 °F 21.2 °F 86% 29.99 in 8.0 mi SSE 12.7 mph - N/A   Overcast
12:55 PM 24.8 °F 13.4 °F 23.0 °F 93% 29.98 in - South 12.7 mph - N/A   Overcast
1:15 PM 26.6 °F 15.7 °F 23.0 °F 86% 29.97 in 5.0 mi South 12.7 mph - N/A   Overcast
1:35 PM - - - N/A% - - North - - N/A   Unknown
1:55 PM 28.4 °F 19.1 °F 26.6 °F 93% 29.97 in 5.0 mi South 10.4 mph - N/A   Mist
2:15 PM 28.4 °F 18.5 °F 26.6 °F 93% 29.95 in 7.0 mi South 11.5 mph - N/A   Overcast
2:35 PM 30.2 °F 19.8 °F 26.6 °F 86% 29.94 in 6.0 mi South 13.8 mph - N/A   Overcast
2:55 PM 32.0 °F 22.1 °F 28.4 °F 87% 29.93 in 6.0 mi South 13.8 mph - N/A   Overcast
3:15 PM 32.0 °F 22.5 °F 28.4 °F 87% 29.92 in 7.0 mi South 12.7 mph - N/A   Overcast
3:35 PM 32.0 °F 22.5 °F 28.4 °F 87% 29.90 in 8.0 mi South 12.7 mph - N/A   Overcast
3:55 PM 32.0 °F 23.0 °F 30.2 °F 93% 29.90 in 7.0 mi South 11.5 mph - N/A   Overcast
4:15 PM 35.6 °F 28.6 °F 32.0 °F 87% 29.89 in 8.0 mi South 9.2 mph - N/A   Overcast
4:35 PM 35.6 °F 28.0 °F 32.0 °F 87% 29.88 in 8.0 mi South 10.4 mph - N/A   Mostly Cloudy
4:55 PM 35.6 °F 29.9 °F 32.0 °F 87% 29.87 in 9.0 mi South 6.9 mph - N/A   Mostly Cloudy
5:15 PM 37.4 °F 30.3 °F 30.2 °F 75% 29.87 in 10.0 mi WSW 10.4 mph - N/A   Partly Cloudy
5:35 PM 37.4 °F 30.8 °F 30.2 °F 75% 29.86 in 10.0 mi WSW 9.2 mph - N/A   Clear
5:55 PM 37.4 °F 29.8 °F 32.0 °F 81% 29.85 in 10.0 mi SW 11.5 mph - N/A   Clear
6:15 PM 37.4 °F 30.8 °F 32.0 °F 81% 29.84 in 10.0 mi WSW 9.2 mph - N/A   Clear
6:35 PM 37.4 °F 30.8 °F 32.0 °F 81% 29.84 in 10.0 mi WSW 9.2 mph - N/A   Clear
6:55 PM 37.4 °F 32.1 °F 32.0 °F 81% 29.84 in 10.0 mi WSW 6.9 mph - N/A   Clear
7:15 PM 35.6 °F 29.2 °F 32.0 °F 87% 29.84 in 10.0 mi SW 8.1 mph - N/A   Clear
7:35 PM 35.6 °F 29.2 °F 32.0 °F 87% 29.83 in 10.0 mi WSW 8.1 mph - N/A   Clear
7:55 PM 35.6 °F 26.6 °F 32.0 °F 87% 29.83 in 10.0 mi West 13.8 mph - N/A   Clear
8:15 PM 35.6 °F 25.2 °F 30.2 °F 81% 29.82 in 10.0 mi WNW 18.4 mph - N/A   Clear
8:35 PM 35.6 °F 26.2 °F 30.2 °F 81% 29.82 in 10.0 mi West 15.0 mph - N/A   Clear
8:55 PM 33.8 °F 24.8 °F 30.2 °F 87% 29.82 in 10.0 mi West 12.7 mph - N/A   Clear
9:15 PM 33.8 °F 24.8 °F 30.2 °F 87% 29.82 in 10.0 mi West 12.7 mph - N/A   Clear
9:35 PM 33.8 °F 24.8 °F 30.2 °F 87% 29.82 in 10.0 mi West 12.7 mph - N/A   Clear
9:55 PM 32.0 °F 23.0 °F 30.2 °F 93% 29.81 in 10.0 mi West 11.5 mph - N/A   Clear
10:15 PM 32.0 °F 24.8 °F 30.2 °F 93% 29.81 in 10.0 mi WNW 8.1 mph - N/A   Clear
10:35 PM 32.0 °F 24.8 °F 30.2 °F 93% 29.80 in 10.0 mi WNW 8.1 mph - N/A   Clear
10:55 PM 32.0 °F 24.8 °F 28.4 °F 87% 29.79 in 10.0 mi West 8.1 mph - N/A   Clear
11:15 PM 32.0 °F 24.2 °F 28.4 °F 87% 29.79 in 10.0 mi West 9.2 mph - N/A   Clear
11:35 PM 32.0 °F 23.0 °F 28.4 °F 87% 29.78 in 10.0 mi West 11.5 mph - N/A   Clear
11:55 PM 32.0 °F 23.6 °F 28.4 °F 87% 29.78 in 10.0 mi West 10.4 mph - N/A   Clear